星链-2334 (STARLINK-2334 )

导读

STARLINK-2334是美国SpaceX星链计划中的卫星,于2021年3月11日发射升空,属于星链低轨互联网卫星星座的组成部分。它运行在近地轨道,承担为全球提供高速互联网接入服务的任务,支撑星链网络覆盖扩展,推动低轨卫星通信星座组网建设,是美国星链全球通信布局的重要节点。

基本信息
目录编号:
47792
目录名称:
STARLINK-2334
国际标识:
2021-018F
轨道中心:
EARTH
卫星名称:
星链-2334
卫星全名:
星链-2334 (STARLINK-2334 )
卫星状态:
在轨 (已飞行1924 天)
发射日期:
2021-03-11 UTC
国别 :
美国 (US)
星等 :
--
轨道信息
数据来源 国际轨道数据 AOE轨道数据
星历时间 2026-06-17T12:59:19+0800
11小时前
查看轨道信息
2026-06-12T05:00:00+0800
5天前
查看轨道信息
半长轴 6848.841km 6848.85km
偏心率 0.0001195 0.0000862
轨道倾角 53.159° 53.158°
近地点辐角 97.234° 165.482°
升交点赤经 136.175° 161.005°
平近点角 262.880° 292.168°
近地点 469.885km 470.122km
远地点 471.523km 471.304km
周期 94.012分钟 94.013分钟
每日圈数 15.317121 15.317093
详细信息
固有亮度:
5
最大亮度:
2.5
卫星平台:
Starlink V1.0
覆盖范围:
全球
运营商:
太空探索技术公司
运营商所在国:
美国
制造商(研发单位):
太空探索技术公司
制造商所在国:
美国
使用方式:
暂无
卫星简介
星链(Starlink)计划是由太空探索技术公司(SpaceX)提出的一个巨型低轨卫星互联网星座项目,计划在2019年至2024年间在太空搭建由约1.2万颗卫星组成的“星链”网络,其中1584颗将部署在地球上空550千米处的近地轨道,并从2020年开始工作。该卫星仍在工作。
2D轨道图
3D轨道图
轨道高度分析图
轨道倾角分析图
轨道综合分析图
查看轨道综合分析图